Location: Tucson
(32.2220°N, 110.9260°W)
Time: 10:29:35
(UTC-07:00)

GENESIS II - Visible Passes

Search period start: 16 August 2017 00:00
Search period end: 26 August 2017 00:00
Orbit: 502 x 533 km, 64.5° (Epoch: 15 August)

Date Brightness Start Highest point End Pass type
(mag) Time Alt. Az. Time Alt. Az. Time Alt. Az.
16 Aug 5.9 21:04:52 10° N 21:07:08 24° NNE 21:07:08 24° NNE visible
17 Aug 5.5 20:49:39 10° N 20:52:30 28° NE 20:52:30 28° NE visible
18 Aug 5.2 20:34:25 10° N 20:37:56 30° ENE 20:37:57 30° ENE visible
19 Aug 5.1 20:19:12 10° N 20:22:44 32° ENE 20:23:27 29° E visible
19 Aug 7.2 21:57:57 10° WNW 21:58:29 12° W 21:58:29 12° W visible
20 Aug 5.1 20:03:58 10° N 20:07:33 33° ENE 20:09:03 24° E visible
20 Aug 7.0 21:42:52 10° WNW 21:44:05 13° W 21:44:05 13° W visible
21 Aug 5.0 19:48:45 10° N 19:52:21 34° ENE 19:54:44 18° ESE visible
21 Aug 6.9 21:27:48 10° W 21:29:42 13° WSW 21:29:46 13° WSW visible
22 Aug 4.9 19:33:32 10° N 19:37:10 36° ENE 19:40:30 11° SE visible
22 Aug 6.9 21:12:45 10° W 21:14:29 13° WSW 21:15:34 11° SW visible
23 Aug 4.9 19:18:18 10° NNW 19:21:58 38° ENE 19:25:34 10° SE visible
23 Aug 7.0 20:57:43 10° W 20:59:16 12° WSW 21:00:48 10° SW visible
24 Aug 7.1 20:42:44 10° W 20:44:04 11° WSW 20:45:22 10° SW visible
25 Aug 7.2 20:27:47 10° W 20:28:50 11° WSW 20:29:53 10° SW visible
